Weather History for Auburn, CA

Change the Weather History Date:

Monday, January 16, 2012

  Actual Average Record
Temperature  
Mean Temperature 34 °F -  
Max Temperature 46 °F 54 °F 71 °F (2014)
Min Temperature 21 °F 38 °F 21 °F (2012)
Degree Days  
Heating Degree Days 32    
Moisture  
Dew Point 23 °F    
Average Humidity 67    
Maximum Humidity 100    
Minimum Humidity 27    
Precipitation  
Precipitation 0.00 in - - ()
Sea Level Pressure  
Sea Level Pressure 30.18 in    
Wind  
Wind Speed 1 mph (WNW)    
Max Wind Speed 10 mph    
Max Gust Speed -    
Visibility 10 miles    
Events      
Averages and records for this station are not official NWS values.
T = Trace of Precipitation, MM = Missing Value Source: NWS Daily Summary

Daily Weather History Graph

Daily Weather History Graph

Search for Another Location

Airport:

Trip Planner

Search our weather history database for the weather conditions in past years. The results will help you decide how hot, cold, wet, or windy it might be!

Date:

Astronomy

Jan. 16, 2012 Rise Set
Actual Time 7:21 AM PST 5:07 PM PST
Civil Twilight 6:52 AM PST 5:36 PM PST
Nautical Twilight 6:19 AM PST 6:09 PM PST
Astronomical Twilight 5:47 AM PST 6:41 PM PST
Moon 12:37 AM PST (1/16) 11:23 AM PST (1/16)
Length of Visible Light 10h 44m
Length of Day
9h 45m
Last Quarter, 45% of the Moon is Illuminated
Jan 16
Last Quarter
Jan 22
New
Jan 30
First Quarter
Feb 7
Full
Feb 14
Last Quarter

Hourly Weather History & Observations

Time (PST) Temp. Windchill Dew Point Humidity Pressure Visibility Wind Dir Wind Speed Gust Speed Precip Events Conditions
12:35 AM 32.0 °F - 24.8 °F 75% 30.09 in 10.0 mi Calm Calm - N/A   Partly Cloudy
12:55 AM 32.0 °F - 23.0 °F 69% 30.09 in 10.0 mi Calm Calm - N/A   Partly Cloudy
1:15 AM 32.0 °F - 21.2 °F 64% 30.10 in 10.0 mi Calm Calm - N/A   Clear
1:35 AM 30.2 °F - 21.2 °F 69% 30.10 in 10.0 mi Calm Calm - N/A   Clear
1:55 AM 28.4 °F - 19.4 °F 69% 30.11 in 10.0 mi Calm Calm - N/A   Clear
2:15 AM 26.6 °F - 19.4 °F 74% 30.11 in 10.0 mi Calm Calm - N/A   Clear
2:35 AM 24.8 °F - 19.4 °F 80% 30.12 in 10.0 mi Calm Calm - N/A   Clear
2:55 AM 23.0 °F - 19.4 °F 86% 30.12 in 10.0 mi Calm Calm - N/A   Clear
3:15 AM 23.0 °F - 19.4 °F 86% 30.12 in 10.0 mi Calm Calm - N/A   Clear
3:35 AM 23.0 °F - 17.6 °F 80% 30.12 in 10.0 mi Calm Calm - N/A   Clear
3:55 AM 21.2 °F - 17.6 °F 86% 30.12 in 10.0 mi Calm Calm - N/A   Clear
4:15 AM 21.2 °F - 17.6 °F 86% 30.13 in 10.0 mi Calm Calm - N/A   Clear
4:35 AM 21.2 °F - 17.6 °F 86% 30.12 in 10.0 mi Calm Calm - N/A   Clear
5:15 AM 23.0 °F - 17.6 °F 80% 30.13 in 10.0 mi Calm Calm - N/A   Clear
5:35 AM 28.4 °F 23.3 °F 23.0 °F 80% 30.13 in 10.0 mi East 4.6 mph - N/A   Clear
5:55 AM 30.2 °F 25.4 °F 26.6 °F 86% 30.14 in 10.0 mi ESE 4.6 mph - N/A   Clear
6:15 AM 32.0 °F 27.5 °F 30.2 °F 93% 30.14 in 10.0 mi East 4.6 mph - N/A   Clear
6:35 AM 32.0 °F - 32.0 °F 100% 30.15 in 10.0 mi Calm Calm - N/A   Clear
6:55 AM 30.2 °F - 30.2 °F 100% 30.16 in 10.0 mi Calm Calm - N/A   Clear
7:15 AM 28.4 °F - 28.4 °F 100% 30.16 in 10.0 mi Calm Calm - N/A   Clear
7:35 AM 32.0 °F - 30.2 °F 93% 30.17 in 10.0 mi Calm Calm - N/A   Clear
7:55 AM 30.2 °F 25.4 °F 30.2 °F 100% 30.18 in 10.0 mi NW 4.6 mph - N/A   Clear
8:15 AM 30.2 °F - 28.4 °F 93% 30.19 in 10.0 mi Calm Calm - N/A   Clear
8:35 AM 32.0 °F - 30.2 °F 93% 30.20 in 9.0 mi Calm Calm - N/A   Clear
8:55 AM 35.6 °F - 32.0 °F 87% 30.21 in 10.0 mi Calm Calm - N/A   Clear
9:15 AM 35.6 °F - 32.0 °F 87% 30.21 in 10.0 mi Calm Calm - N/A   Clear
9:35 AM 37.4 °F - 32.0 °F 81% 30.22 in 10.0 mi Calm Calm - N/A   Clear
9:55 AM 39.2 °F 37.0 °F 32.0 °F 75% 30.23 in 10.0 mi WNW 3.5 mph - N/A   Clear
10:15 AM 39.2 °F - 32.0 °F 75% 30.23 in 10.0 mi Calm Calm - N/A   Clear
10:35 AM 41.0 °F - 32.0 °F 70% 30.24 in 10.0 mi Calm Calm - N/A   Clear
10:55 AM 41.0 °F - 32.0 °F 70% 30.23 in 10.0 mi Calm Calm - N/A   Clear
11:15 AM 42.8 °F 40.1 °F 32.0 °F 66% 30.23 in 10.0 mi West 4.6 mph - N/A   Clear
11:35 AM 42.8 °F 39.3 °F 30.2 °F 61% 30.23 in 10.0 mi West 5.8 mph - N/A   Clear
12:15 PM 44.6 °F 40.7 °F 30.2 °F 57% 30.22 in 10.0 mi West 6.9 mph - N/A   Clear
12:35 PM 44.6 °F 40.7 °F 30.2 °F 57% 30.21 in 10.0 mi West 6.9 mph - N/A   Clear
12:55 PM 44.6 °F 41.4 °F 28.4 °F 53% 30.21 in 10.0 mi West 5.8 mph - N/A   Clear
1:15 PM 44.6 °F 39.2 °F 28.4 °F 53% 30.21 in 10.0 mi West 10.4 mph - N/A   Clear
1:35 PM 44.6 °F 40.7 °F 28.4 °F 53% 30.20 in 10.0 mi WNW 6.9 mph - N/A   Clear
1:55 PM 44.6 °F 40.7 °F 26.6 °F 49% 30.20 in 10.0 mi WSW 6.9 mph - N/A   Clear
2:15 PM 44.6 °F 40.2 °F 23.0 °F 43% 30.20 in 10.0 mi West 8.1 mph - N/A   Clear
2:35 PM 44.6 °F 41.4 °F 21.2 °F 39% 30.20 in 10.0 mi West 5.8 mph - N/A   Clear
2:55 PM 46.4 °F 44.3 °F 21.2 °F 37% 30.20 in 10.0 mi WNW 4.6 mph - N/A   Clear
3:35 PM 44.6 °F 43.1 °F 19.4 °F 37% 30.20 in 10.0 mi NW 3.5 mph - N/A   Clear
3:55 PM 44.6 °F 40.7 °F 14.0 °F 29% 30.21 in 10.0 mi WNW 6.9 mph - N/A   Clear
4:15 PM 44.6 °F 42.2 °F 12.2 °F 27% 30.21 in 10.0 mi WNW 4.6 mph - N/A   Clear
4:35 PM 42.8 °F 38.6 °F 10.4 °F 27% 30.22 in 10.0 mi WNW 6.9 mph - N/A   Clear
4:55 PM 42.8 °F 41.1 °F 10.4 °F 27% 30.22 in 10.0 mi WNW 3.5 mph - N/A   Clear
5:15 PM 39.2 °F - 10.4 °F 31% 30.23 in 10.0 mi Calm Calm - N/A   Clear
5:35 PM 32.0 °F - 10.4 °F 41% 30.23 in 10.0 mi Calm Calm - N/A   Clear
5:55 PM 30.2 °F - 12.2 °F 47% 30.24 in 10.0 mi Calm Calm - N/A   Clear
6:15 PM 26.6 °F - 12.2 °F 55% 30.24 in 10.0 mi Calm Calm - N/A   Clear
6:35 PM 28.4 °F - 12.2 °F 51% 30.24 in 10.0 mi Calm Calm - N/A   Clear
6:55 PM 28.4 °F - 12.2 °F 51% 30.24 in 10.0 mi Calm Calm - N/A   Clear
7:15 PM 26.6 °F - 12.2 °F 55% 30.24 in 10.0 mi Calm Calm - N/A   Clear
8:15 PM 32.0 °F - 12.2 °F 44% 30.24 in 10.0 mi Calm Calm - N/A   Clear
8:35 PM 32.0 °F 27.5 °F 12.2 °F 44% 30.25 in 10.0 mi East 4.6 mph - N/A   Clear
8:55 PM 32.0 °F 28.7 °F 14.0 °F 48% 30.26 in 10.0 mi ESE 3.5 mph - N/A   Clear
9:15 PM 33.8 °F 30.8 °F 14.0 °F 44% 30.26 in 10.0 mi ESE 3.5 mph - N/A   Clear
9:35 PM 33.8 °F 29.6 °F 14.0 °F 44% 30.26 in 10.0 mi ESE 4.6 mph - N/A   Clear
9:55 PM 33.8 °F 28.6 °F 14.0 °F 44% 30.26 in 10.0 mi ESE 5.8 mph - N/A   Clear
10:15 PM 33.8 °F 28.6 °F 14.0 °F 44% 30.26 in 10.0 mi ESE 5.8 mph - N/A   Clear
10:35 PM 33.8 °F 29.6 °F 14.0 °F 44% 30.27 in 10.0 mi ESE 4.6 mph - N/A   Clear
10:55 PM 33.8 °F 28.6 °F 15.8 °F 48% 30.28 in 10.0 mi ESE 5.8 mph - N/A   Clear
11:15 PM 33.8 °F 28.6 °F 15.8 °F 48% 30.28 in 10.0 mi ESE 5.8 mph - N/A   Clear
11:35 PM 33.8 °F - 15.8 °F 48% 30.29 in 10.0 mi Calm Calm - N/A   Clear
11:55 PM 32.0 °F 24.8 °F 17.6 °F 55% 30.29 in 10.0 mi ESE 8.1 mph - N/A   Clear